This is the latest recevied weather packets stored in our database for station/object K4BHH. If no packets are shown the sender has not sent any weather packets the latest 10 day(s).
| Time | Temp. | Humidity | Pressure | Rain* | Wind** | Luminosity | Snow |
|---|---|---|---|---|---|---|---|
| 1777963446 | 13.89° C | 75% | 1012.9 hPa | 0 mm | - | - | - |
| 1777962244 | 14.44° C | 72% | 1012.9 hPa | 0 mm | - | - | - |
| 1777957913 | 15° C | 71% | 1013.2 hPa | 0 mm | - | - | - |
| 1777957312 | 15.56° C | 70% | 1013.2 hPa | 0 mm | - | - | - |
| 1777951904 | 16.67° C | 65% | 1012.9 hPa | 0 mm | - | - | - |
| 1777949469 | 17.22° C | 60% | 1013.2 hPa | 0 mm | - | - | - |
| 1777948268 | 18.33° C | 57% | 1012.9 hPa | 0 mm | - | - | - |
| 1777947066 | 18.89° C | 55% | 1012.9 hPa | 0 mm | - | - | - |
| 1777944060 | 20.56° C | 50% | 1012.5 hPa | 0 mm | - | - | - |
| 1777942226 | 21.67° C | 47% | 1012.2 hPa | 0 mm | - | - | - |
| 1777936031 | 25° C | 37% | 1012.2 hPa | 0 mm | - | - | - |
| 1777934196 | 25° C | 37% | 1012.2 hPa | 0 mm | - | - | - |
| 1777932994 | 25.56° C | 38% | 1012.5 hPa | 0 mm | - | - | - |
| 1777928187 | 25° C | 40% | 1012.5 hPa | 0 mm | - | - | - |
| 1777922778 | 25° C | 43% | 1013.9 hPa | 0 mm | - | - | - |
| 1777919775 | 25.56° C | 46% | 1014.2 hPa | 0 mm | - | - | - |
| 1777917339 | 24.44° C | 47% | 1014.9 hPa | 0 mm | - | - | - |
| 1777914874 | 23.89° C | 49% | 1015.6 hPa | 0 mm | - | - | - |
| 1777914273 | 23.89° C | 50% | 1015.6 hPa | 0 mm | - | - | - |
| 1777912469 | 22.78° C | 49% | 1015.9 hPa | 0 mm | - | - | - |
| 1777908677 | 21.67° C | 52% | 1016.9 hPa | 0 mm | - | - | - |
| 1777906874 | 20.56° C | 51% | 1016.9 hPa | 0 mm | - | - | - |
| 1777906273 | 20° C | 52% | 1016.9 hPa | 0 mm | - | - | - |
| 1777905673 | 19.44° C | 53% | 1016.9 hPa | 0 mm | - | - | - |
| 1777903237 | 17.78° C | 57% | 1017.6 hPa | 0 mm | - | - | - |
* Rain latest hour (hover to see other rain measurements)
** Current wind speed in m/s (hover to see current wind gust speed)